Flag for Switzerland Weather past 2 weeks in La-Chaux-de-Fonds, Neuchâtel, Switzerland

Now
43 °F

Rain. Passing clouds.


Feels Like: 35 °F
Forecast: 35 / 44 °F
Wind: 17 mph from Southwest

Location: Les Eplatures

Current Time: Mar 30, 2015 at 2:50:10 AM

Latest Report: Mar 30, 2015 at 2:20 AM


Visibility: N/A

Pressure: 29.77 "Hg

Humidity: 93%

Dew point: 41 °F

Location of La-Chaux-de-FondsLocation

Historic Weather in La-Chaux-de-Fonds — Graph

°F

La-Chaux-de-Fonds temperature yesterday

Maximum temperature yesterday: 45 °F (at 6:20 PM)
Minimum temperature yesterday: 39 °F (at 6:20 AM)
Average temperature yesterday: 42 °F

Past Weeks' High & Low Weather Summary

 TemperatureHumidityPressure
High57 °F (Mar 17, 2:50 PM)100% (Mar 25, 10:20 AM)30.24 "Hg (Mar 25, 10:20 AM)
Low23 °F (Mar 15, 2:50 AM)29% (Mar 17, 3:20 PM)29.62 "Hg (Mar 25, 3:20 AM)
Average39 °F79%30.01 "Hg
* Reported Mar 15 12:20 AM — Mar 30 1:20 AM, La-Chaux-de-Fonds, Weather by CustomWeather, © 2015

Note: Actual official high and low records may vary slightly from our data, if they occured in-between our weather recording intervals... More about our weather records

Advertising

La-Chaux-de-Fonds weather history for previous 24 hours

 ConditionsComfort  
Time TempWeatherWind HumidityBarometerVisibility
1:20 AM
Mon, Mar 30
43 °FLight rain. Passing clouds.16 mph93%29.80 "Hg6 mi
12:50 AM43 °FLight rain. Passing clouds.15 mph93%29.80 "Hg5 mi
12:20 AM43 °FLight rain. Partly cloudy.17 mph93%29.83 "HgN/A
11:50 PM
Sun, Mar 29
43 °FLight rain. Partly cloudy.15 mph93%29.83 "HgN/A
11:20 PM43 °FLight rain. Passing clouds.18 mph93%29.83 "HgN/A
10:50 PM43 °FLight rain. Partly cloudy.16 mph93%29.83 "HgN/A
10:20 PM43 °FLight rain. Partly cloudy.21 mph93%29.86 "HgN/A
9:50 PM43 °FLight rain. Partly sunny.15 mph93%29.86 "HgN/A
9:20 PM43 °FRain. Low clouds.17 mph93%29.86 "Hg4 mi
8:50 PM43 °FLight rain. Broken clouds.13 mph93%29.86 "HgN/A
8:20 PM43 °FLight rain. Broken clouds.15 mph93%29.86 "HgN/A
7:50 PM43 °FRain. Mostly cloudy.17 mph93%29.86 "Hg6 mi
7:20 PM45 °FLight rain. Partly sunny.18 mph87%29.89 "HgN/A
6:50 PM45 °FLight rain. Partly sunny.18 mph87%29.89 "HgN/A
6:20 PM45 °FSprinkles. Partly sunny.12 mph87%29.89 "HgN/A
5:50 PM43 °FLow clouds.13 mph93%29.89 "HgN/A
5:20 PM43 °FDrizzle. Low clouds.15 mph93%29.92 "Hg4 mi
4:50 PM43 °FLight rain. Low clouds.17 mph93%29.92 "Hg4 mi
4:20 PM43 °FMostly cloudy.20 mph93%29.92 "Hg6 mi
3:50 PM41 °FLight rain. Mostly cloudy.16 mph93%29.95 "Hg6 mi
3:20 PM41 °FLight rain. Mostly cloudy.14 mph93%29.95 "Hg6 mi
2:50 PM41 °FLight rain. Mostly cloudy.15 mph93%29.95 "Hg6 mi
2:20 PM41 °FLight rain. Mostly cloudy.16 mph87%29.95 "Hg6 mi
1:50 PM41 °FLight rain. Mostly cloudy.16 mph93%29.98 "Hg5 mi
1:20 PM39 °FLight rain. Mostly cloudy.15 mph93%29.98 "Hg5 mi
12:50 PM39 °FLight rain. Mostly cloudy.17 mph93%29.98 "Hg5 mi
12:20 PM41 °FLight rain. Mostly cloudy.18 mph87%29.98 "Hg4 mi
11:50 AM41 °FLight rain. Mostly cloudy.13 mph93%29.98 "Hg4 mi
11:20 AM41 °FLight rain. Mostly cloudy.15 mph93%30.01 "Hg4 mi
10:50 AM41 °FLight rain. Mostly cloudy.10 mph93%30.01 "Hg4 mi
10:20 AM41 °FLight rain. Mostly cloudy.13 mph93%30.01 "Hg4 mi
9:50 AM41 °FLight rain. Mostly cloudy.10 mph93%30.01 "Hg3 mi
9:20 AM41 °FDrizzle. Low clouds.13 mph93%30.01 "Hg3 mi
8:50 AM41 °FDrizzle. Mostly cloudy.9 mph93%30.01 "Hg4 mi
8:20 AM41 °FDrizzle. Low clouds.10 mph93%30.01 "Hg4 mi
7:50 AM41 °FPassing clouds.12 mph93%30.01 "HgN/A
7:20 AM41 °FPassing clouds.10 mph93%30.01 "HgN/A
6:50 AM41 °FPassing clouds.12 mph93%30.01 "HgN/A
6:20 AM39 °FPassing clouds.9 mph100%30.01 "HgN/A
5:50 AM41 °FPassing clouds.9 mph93%30.04 "HgN/A
5:20 AM41 °FSprinkles. Passing clouds.8 mph93%30.04 "HgN/A
4:50 AM41 °FPartly cloudy.10 mph93%30.07 "HgN/A
4:20 AM41 °FLight rain. Low clouds.14 mph93%30.07 "HgN/A
3:50 AM41 °FLight rain. Passing clouds.14 mph93%30.07 "HgN/A
3:20 AM41 °FDrizzle. Low clouds.12 mph93%30.09 "HgN/A
Weather by CustomWeather, © 2015

See weather overviewHow to use our weather pages